Regional Weather Roundup
Issued by NWS

Home | Current Version | Previous Version | Text Only | Print | Product List | Glossary Off
Versions: 1 2 3 4 5 6 7 8 9 10 11 12 13 14 15 16 17 18 19 20 21 22 23 24 25 26 27 28 29 30 31 32 33 34 35 36 37 38 39 40 41 42 43 44 45 46 47 48 49 50

000
ASUS43 KMPX 261110
RWRMN
WEATHER ROUNDUP FOR MINNESOTA
NATIONAL WEATHER SERVICE TWIN CITIES/CHANHASSEN MN
500 AM CST MON JAN 26 2015


NOTE: "FAIR" INDICATES FEW OR NO CLOUDS BELOW 12,000 FEET WITH NO
SIGNIFICANT WEATHER AND/OR OBSTRUCTIONS TO VISIBILITY. N/A MEANS
CURRENT SKY AND/OR WEATHER CONDITIONS ARE NOT AVAILABLE.

MNZ060>063-068>070-261200-
   Twin Cities Metro

CITY           SKY/WX    TMP DP  RH WIND       PRES   REMARKS
TWIN CITIES    CLOUDY    26  21  81 SE7       29.77S WCI  18
ST PAUL        CLOUDY    25  22  88 SE8       29.79F WCI  16
CRYSTAL        CLOUDY    28  23  81 S8        29.76F WCI  20
BLAINE         CLOUDY    28  25  86 S7        29.76S WCI  21
LAKEVILLE      CLOUDY    27  25  93 S9        29.74F WCI  17
EDEN PRAIRIE   CLOUDY    28  24  85 S5        29.74F WCI  23
SOUTH ST PAUL  CLOUDY    27  23  85 SE5       29.78S WCI  21
LAKE ELMO      LGT SNOW  27  23  86 S9        29.79S WCI  17
$$
MNZ001>005-007-008-013>017-022>024-027-028-261200-
   Northwest Minnesota

CITY           SKY/WX    TMP DP  RH WIND       PRES   REMARKS
BEMIDJI        CLOUDY    29  26  87 SW6       29.58F WCI  23
HALLOCK        CLOUDY    36  30  80 NW14      29.59R
ROSEAU         CLOUDY    32  27  80 W13G18    29.55S WCI  22
WARROAD        CLOUDY    30  27  86 W13G22    29.54S WCI  20
THIEF RVR FALL CLOUDY    30  28  93 W10       29.60S WCI  21
CROOKSTON      PTCLDY    25  25 100 NW8       29.64R WCI  16
FOSSTON        MOCLDY    27  25  93 SW10      29.61S WCI  17
DETROIT LAKES  CLEAR     32  30  93 W12       29.64S WCI  23
MOORHEAD       CLEAR     30  30 100 W5        29.66F WCI  25
PARK RAPIDS    CLOUDY    29  26  89 SW6       29.61F WCI  23
MAHNOMEN       FAIR      26  25  94 W5        29.63R WCI  21
$$
MNZ006-009>011-018-025>026-261200-
   North Central Minnesota

CITY           SKY/WX    TMP DP  RH WIND       PRES   REMARKS
BAUDETTE       CLOUDY    28  23  81 SW8       29.52F WCI  20
FLAG ISLAND    CLOUDY    25  25 100 CALM      29.51F
INTL FALLS     LGT SNOW  22  19  89 VRB7      29.55F FOG     WCI  13
WASKISH        CLOUDY    30  27  86 SW8       29.56F WCI  23
BIG FORK       CLOUDY    25  21  86 S9        29.59F WCI  15
LONGVILLE      CLOUDY    27  25  93 S6        29.62F WCI  20
GRAND RAPIDS   CLOUDY    23  19  86 S10       29.61F WCI  12
CRANE LAKE     LGT SNOW  19  18  93 S5        29.62F WCI  13
ORR            MIX PCPN  21  18  86 S8        29.58F WCI  12
COOK           LGT SNOW  21  18  86 S6        29.62F WCI  14
WALKER         CLOUDY    28  24  86 SW7       29.61S WCI  21
$$
MNZ012-019>021-037-261200-
   Northeast Minnesota

CITY           SKY/WX    TMP DP  RH WIND       PRES   REMARKS
DULUTH         FRZ DRZL  19  16  88 S9        29.67S WCI   8
ELY            LGT SNOW  19  16  86 S10       29.62F WCI   8
HIBBING        FRZ RAIN  22  18  85 S6        29.64R FOG     WCI  14
EVELETH        LGT SNOW  21  19  93 S6        29.65F WCI  14
DULUTH HARBOR  LGT SNOW  21  19  93 CALM      29.73F
TWO HARBORS    CLOUDY    23  18  80 S7        29.69F HAZE    WCI  15
SILVER BAY     LGT SNOW  21  19  93 S8        29.70F WCI  12
GRAND MARAIS     N/A     26  22  84 S20       29.77F WCI  12
G MARAIS ARPRT LGT SNOW  18  14  86 S8G17     29.68F WCI   7
$$
MNZ029>031-032-039>041-046>048-054>057-064-261200-
   West Central Minnesota

CITY           SKY/WX    TMP DP  RH WIND       PRES   REMARKS
FERGUS FALLS   PTCLDY    27  25  93 W7        29.69S WCI  19
WHEATON        MOCLDY    36  30  80 W15       29.70F
MORRIS         MOCLDY    34  30  86 W13       29.68R WCI  25
ALEXANDRIA     CLOUDY    32  29  88 SW8       29.66R WCI  25
ELBOW LAKE     FAIR      30  28  95 W10       29.67S WCI  21
WADENA         CLOUDY    30  27  86 W7        29.63S WCI  23
GLENWOOD       MOCLDY    32  30  93 SW14      29.67R WCI  22
APPLETON       MOCLDY    36  32  87 SW10      29.69F
BENSON         CLOUDY    34  30  86 W13       29.67F WCI  25
ORTONVILLE     CLOUDY    37  30  75 W13G20    29.69F
MADISON        CLOUDY    39  34  81 W12       29.70R
WILLMAR        FAIR      34  30  86 SW22G31   29.67S WCI  22
$$
MNZ033>034-036-042>043-049>051-058-059-261200-
   Central Minnesota

CITY           SKY/WX    TMP DP  RH WIND       PRES   REMARKS
ST CLOUD       CLOUDY    26  24  92 S9        29.70F WCI  17
SAUK CENTRE    CLOUDY    32  30  92 SW3       29.69F
PAYNESVILLE    CLOUDY    31  29  94 SW7       29.72R WCI  24
AITKIN         CLOUDY    27  21  80 S5        29.65S WCI  21
PINE RIVER     CLOUDY    28  25  86 CALM      29.67F
BRAINERD       CLOUDY    26  23  88 S10       29.65F WCI  16
STAPLES        CLOUDY    28  27  93 SW3       29.64F
LONG PRAIRIE   CLOUDY    28  28 100 S9        29.65F WCI  20
LITTLE FALLS   CLOUDY    28  27  93 SE5       29.68F WCI  23
LITCHFIELD     CLOUDY    34  34 100 SW3       29.70R
BUFFALO        CLOUDY    28  25  91 SE3       29.74S
MAPLE LAKE     CLOUDY    29  28  96 SE5       29.73S WCI  24
$$
MNZ037-044-045-052-053-261200-
   East Central Minnesota

CITY           SKY/WX    TMP DP  RH WIND       PRES   REMARKS
PRINCETON      CLOUDY    27  23  86 SE8       29.71F WCI  18
MORA           CLOUDY    23  19  86 S7        29.74F WCI  15
CAMBRIDGE      FLURRIES  25  18  74 SE6       29.72F WCI  18
RUSH CITY      LGT SNOW  22  19  90 S8        29.74F WCI  12
MOOSE LAKE     CLOUDY    21  19  93 S9        29.67F WCI  11
HINCKLEY       LGT SNOW  23  21  93 S9        29.71F WCI  13
CLOQUET        FLURRIES  19  18  93 S6        29.67F WCI  11
MCGREGOR       CLOUDY    25  21  86 S9        29.66F WCI  15
$$
MNZ071>073-080-081-089-090-097-098-261200-
   Southwest Minnesota

CITY           SKY/WX    TMP DP  RH WIND       PRES   REMARKS
MONTEVIDEO     CLOUDY    36  36 100 W9        29.71S
GRANITE FALLS  MOCLDY    35  32  90 SW14      29.72F WCI  25
CANBY          CLOUDY    38  32  80 W20G29    29.71F
MARSHALL       CLOUDY    37  28  70 W25       29.72R
REDWOOD FALLS  MIX PCPN  34  31  88 SW25G33   29.67F WCI  21
OLIVIA         CLOUDY    32  32 100 SW20G26   29.67F WCI  20
PIPESTONE      MOCLDY    32  30  93 SW14      29.73F WCI  22
WINDOM         CLOUDY    34  32  93 S16G23    29.73F WCI  23
WORTHINGTON    CLOUDY    34  28  80 S14       29.76F WCI  24
JACKSON        CLOUDY    32  32 100 S18       29.77F WCI  20
TRACY          CLOUDY    36  32  87 SW23G29   29.71R
SLAYTON        CLOUDY    33  31  93 SW24      29.71F WCI  20
$$
MNZ065>067-074>077-082>085-091>093-261200-
   South Central Minnesota

CITY           SKY/WX    TMP DP  RH WIND       PRES   REMARKS
MANKATO        CLOUDY    32  27  80 S21G29    29.71F WCI  20
NEW ULM        CLOUDY    34  30  86 SW23      29.71F WCI  22
ST JAMES       CLOUDY    34  30  86 S18G28    29.73F WCI  23
FAIRMONT       CLOUDY    32  28  86 SW20      29.77F WCI  20
GLENCOE        CLOUDY    32  32  98 S8G17     29.69F WCI  25
FARIBAULT      FLURRIES  28  27  93 S12G18    29.75F WCI  18
OWATONNA       LGT SNOW  28  27  93 S15       29.77F WCI  17
WASECA         LGT SNOW  30  28  93 S16       29.78F WCI  19
ALBERT LEA     LGT SNOW  28  28 100 S9        29.82R WCI  20
$$
MNZ078>079-086>088-094>096-261200-
   Southeast Minnesota

CITY           SKY/WX    TMP DP  RH WIND       PRES   REMARKS
ROCHESTER      LGT SNOW  25  22  88 S16       29.81F FOG     WCI  12
RED WING       LGT SNOW  27  21  80 S5        29.80F WCI  21
STANTON        LGT SNOW  29  25  85 S12G18    29.75F WCI  19
DODGE CENTER   LGT SNOW  27  25  93 S16       29.80F WCI  14
WINONA         FLURRIES  27  21  80 SE6       29.87F WCI  20
AUSTIN         MIX PCPN  27  25  93 SW9       29.84R WCI  17
PRESTON        CLOUDY    24  22  91 S12       29.84F WCI  13
$$
ABBREVIATIONS USED IN REMARKS
   TC - TEMPERATURES IN CELSIUS
  WCI - WIND CHILL INDEX
   HX - HEAT INDEX
  VSB - VISIBILITY
$$


USA.gov is the U.S. government's official web portal to all federal, state and local government web resources and services.